OHDEN LYBE-EDJA

Flight info

Callsign OHDEN
Flight time 2h 0m
Altitude 24000
Route TUVAR DCT BEDOX DCT DIPSA DCT ERKIR L608 KPT KPT1C
Aircraft PC12/L-SDFGRWY/S

Departure

Time 2026-04-25 08:00
Airport Belgrade Nikola Tesla Airport (LYBE)

Arrival

Time 2026-04-25 10:01
Airport Memmingen Allgau Airport (EDJA)
Time Latitude Longitude Altitude Speed Heading
2026-04-25 07:32 44.81601 20.29004 318 ft 0 kts 33°
2026-04-25 07:41 44.81599 20.29002 318 ft 3 kts 33°
2026-04-25 07:41 44.81577 20.28993 318 ft 3 kts 308°
2026-04-25 07:42 44.81573 20.29002 318 ft 0 kts 302°
2026-04-25 07:45 44.81566 20.29018 318 ft 3 kts 302°
2026-04-25 07:45 44.81553 20.29031 318 ft 3 kts 11°
2026-04-25 07:46 44.81536 20.29026 318 ft 3 kts 29°
2026-04-25 07:46 44.81534 20.29025 318 ft 0 kts 29°
2026-04-25 07:51 44.81541 20.29034 318 ft 4 kts 44°
2026-04-25 07:51 44.81590 20.29079 318 ft 12 kts 31°
2026-04-25 07:51 44.81672 20.29150 318 ft 11 kts 32°
2026-04-25 07:52 44.81683 20.29236 318 ft 0 kts 119°
2026-04-25 07:52 44.81681 20.29249 318 ft 7 kts 82°
2026-04-25 07:52 44.81758 20.29343 318 ft 21 kts 30°
2026-04-25 07:52 44.81894 20.29463 318 ft 25 kts 32°
2026-04-25 07:53 44.82038 20.29590 318 ft 13 kts 32°
2026-04-25 07:53 44.82065 20.29704 318 ft 17 kts 123°
2026-04-25 07:53 44.81996 20.29860 318 ft 20 kts 122°
2026-04-25 07:53 44.81917 20.30038 317 ft 22 kts 122°
2026-04-25 07:54 44.81832 20.30228 317 ft 23 kts 123°
2026-04-25 07:54 44.81746 20.30423 318 ft 24 kts 119°
2026-04-25 07:54 44.81658 20.30621 318 ft 24 kts 122°
2026-04-25 07:54 44.81568 20.30825 317 ft 25 kts 123°
2026-04-25 07:55 44.81474 20.31035 317 ft 26 kts 121°
2026-04-25 07:55 44.81384 20.31240 317 ft 16 kts 121°
2026-04-25 07:55 44.81322 20.31380 317 ft 18 kts 123°
2026-04-25 07:55 44.81253 20.31535 317 ft 19 kts 121°
2026-04-25 07:56 44.81179 20.31700 318 ft 21 kts 122°
2026-04-25 07:56 44.81101 20.31879 318 ft 22 kts 123°
2026-04-25 07:56 44.81017 20.32066 317 ft 23 kts 121°
2026-04-25 07:56 44.81021 20.32236 316 ft 21 kts 37°
2026-04-25 07:57 44.81118 20.32302 317 ft 0 kts
2026-04-25 07:59 44.81146 20.32307 317 ft 9 kts
2026-04-25 07:59 44.81235 20.32292 319 ft 17 kts 294°
2026-04-25 07:59 44.81264 20.32225 319 ft 15 kts 302°
2026-04-25 07:59 44.81412 20.31885 320 ft 66 kts 302°
2026-04-25 08:00 44.81719 20.31184 448 ft 91 kts 297°
2026-04-25 08:00 44.82028 20.30355 769 ft 98 kts 292°
2026-04-25 08:00 44.82343 20.29476 1154 ft 104 kts 298°
2026-04-25 08:00 44.82730 20.28538 1540 ft 120 kts 298°
2026-04-25 08:01 44.83201 20.27413 1948 ft 146 kts 300°
2026-04-25 08:01 44.83776 20.26109 2332 ft 165 kts 302°
2026-04-25 08:01 44.84422 20.24669 2727 ft 179 kts 301°
2026-04-25 08:01 44.85098 20.23159 3110 ft 185 kts 301°
2026-04-25 08:02 44.85787 20.21618 3473 ft 189 kts 302°
2026-04-25 08:02 44.86494 20.20040 3848 ft 191 kts 302°
2026-04-25 08:02 44.87203 20.18454 4222 ft 191 kts 302°
2026-04-25 08:02 44.87904 20.16885 4681 ft 187 kts 303°
2026-04-25 08:03 44.88594 20.15338 5135 ft 185 kts 303°
2026-04-25 08:03 44.89276 20.13808 5577 ft 184 kts 303°
2026-04-25 08:03 44.89959 20.12278 6036 ft 185 kts 303°
2026-04-25 08:03 44.90645 20.10742 6500 ft 184 kts 304°
2026-04-25 08:04 44.91329 20.09204 6919 ft 184 kts 304°
2026-04-25 08:04 44.92008 20.07679 7344 ft 188 kts 304°
2026-04-25 08:04 44.92711 20.06099 7765 ft 187 kts 304°
2026-04-25 08:04 44.93399 20.04551 8197 ft 187 kts 305°
2026-04-25 08:05 44.94085 20.03013 8612 ft 187 kts 304°
2026-04-25 08:05 44.94775 20.01458 9058 ft 186 kts 305°
2026-04-25 08:05 44.95465 19.99905 9511 ft 186 kts 305°
2026-04-25 08:05 44.96154 19.98354 9960 ft 186 kts 305°
2026-04-25 08:06 44.96843 19.96800 10360 ft 187 kts 305°
2026-04-25 08:06 44.97535 19.95240 10726 ft 189 kts 305°
2026-04-25 08:06 44.98238 19.93655 11088 ft 192 kts 305°
2026-04-25 08:06 44.98948 19.92052 11454 ft 193 kts 305°
2026-04-25 08:07 44.99656 19.90453 11821 ft 195 kts 305°
2026-04-25 08:07 45.00359 19.88808 12195 ft 197 kts 298°
2026-04-25 08:07 45.00733 19.86927 12581 ft 200 kts 285°
2026-04-25 08:07 45.01022 19.84992 12967 ft 201 kts 286°
2026-04-25 08:08 45.01323 19.83052 13357 ft 203 kts 286°
2026-04-25 08:08 45.01626 19.81099 13754 ft 204 kts 286°
2026-04-25 08:08 45.01928 19.79138 14117 ft 205 kts 286°
2026-04-25 08:08 45.02231 19.77169 14464 ft 205 kts 286°
2026-04-25 08:09 45.02533 19.75198 14817 ft 206 kts 286°
2026-04-25 08:09 45.02837 19.73218 15174 ft 206 kts 286°
2026-04-25 08:09 45.03139 19.71242 15538 ft 205 kts 286°
2026-04-25 08:09 45.03440 19.69273 15912 ft 205 kts 286°
2026-04-25 08:10 45.03741 19.67302 16281 ft 204 kts 286°
2026-04-25 08:10 45.04036 19.65366 16654 ft 204 kts 286°
2026-04-25 08:10 45.04336 19.63401 16991 ft 205 kts 286°
2026-04-25 08:10 45.04638 19.61417 17323 ft 206 kts 285°
2026-04-25 08:11 45.04939 19.59435 17668 ft 206 kts 285°
2026-04-25 08:11 45.05240 19.57453 18012 ft 206 kts 285°
2026-04-25 08:11 45.05541 19.55467 18348 ft 207 kts 285°
2026-04-25 08:11 45.05842 19.53475 18653 ft 207 kts 285°
2026-04-25 08:12 45.06143 19.51485 18955 ft 207 kts 285°
2026-04-25 08:12 45.06444 19.49495 19266 ft 207 kts 285°
2026-04-25 08:12 45.06744 19.47502 19576 ft 207 kts 285°
2026-04-25 08:12 45.07041 19.45527 19886 ft 208 kts 285°
2026-04-25 08:13 45.07342 19.43527 20199 ft 208 kts 285°
2026-04-25 08:13 45.07644 19.41524 20493 ft 208 kts 285°
2026-04-25 08:13 45.07943 19.39527 20789 ft 207 kts 285°
2026-04-25 08:14 45.08440 19.36209 21293 ft 207 kts 285°
2026-04-25 08:14 45.08738 19.34219 21607 ft 207 kts 285°
2026-04-25 08:14 45.09037 19.32218 21905 ft 207 kts 285°
2026-04-25 08:14 45.09334 19.30222 22217 ft 207 kts 285°
2026-04-25 08:15 45.09631 19.28228 22530 ft 207 kts 285°
2026-04-25 08:15 45.09928 19.26230 22855 ft 208 kts 285°
2026-04-25 08:15 45.10226 19.24229 23176 ft 208 kts 285°
2026-04-25 08:15 45.10523 19.22225 23504 ft 208 kts 285°
2026-04-25 08:16 45.10820 19.20222 23801 ft 208 kts 285°
2026-04-25 08:16 45.11116 19.18218 24055 ft 209 kts 285°
2026-04-25 08:16 45.11425 19.16144 24070 ft 220 kts 285°
2026-04-25 08:16 45.11742 19.14008 24076 ft 228 kts 285°
2026-04-25 08:17 45.12072 19.11773 24079 ft 235 kts 284°
2026-04-25 08:17 45.12409 19.09479 24080 ft 240 kts 284°
2026-04-25 08:17 45.12868 19.07200 24078 ft 242 kts 296°
2026-04-25 08:17 45.13650 19.05077 24078 ft 244 kts 300°
2026-04-25 08:18 45.14449 19.02941 24084 ft 246 kts 299°
2026-04-25 08:18 45.15251 19.00778 24084 ft 248 kts 299°
2026-04-25 08:18 45.16054 18.98608 24083 ft 249 kts 299°
2026-04-25 08:18 45.16863 18.96425 24084 ft 250 kts 299°
2026-04-25 08:19 45.17663 18.94267 24084 ft 251 kts 299°
2026-04-25 08:19 45.18478 18.92065 24082 ft 252 kts 299°
2026-04-25 08:19 45.19294 18.89858 24083 ft 252 kts 299°
2026-04-25 08:19 45.20108 18.87655 24081 ft 252 kts 299°
2026-04-25 08:20 45.20922 18.85450 24082 ft 252 kts 299°
2026-04-25 08:20 45.21736 18.83244 24083 ft 252 kts 299°
2026-04-25 08:20 45.22550 18.81037 24083 ft 253 kts 299°
2026-04-25 08:20 45.23364 18.78826 24081 ft 253 kts 299°
2026-04-25 08:21 45.24178 18.76614 24084 ft 253 kts 299°
2026-04-25 08:21 45.24990 18.74405 24082 ft 253 kts 299°
2026-04-25 08:21 45.25803 18.72194 24083 ft 252 kts 299°
2026-04-25 08:21 45.26614 18.69983 24084 ft 253 kts 299°
2026-04-25 08:22 45.27427 18.67767 24082 ft 253 kts 299°
2026-04-25 08:22 45.28238 18.65554 24081 ft 252 kts 299°
2026-04-25 08:22 45.29049 18.63340 24080 ft 252 kts 299°
2026-04-25 08:22 45.29860 18.61123 24082 ft 252 kts 299°
2026-04-25 08:23 45.30669 18.58912 24082 ft 252 kts 299°
2026-04-25 08:23 45.31466 18.56728 24081 ft 252 kts 299°
2026-04-25 08:23 45.32274 18.54514 24083 ft 252 kts 299°
2026-04-25 08:23 45.33082 18.52300 24081 ft 252 kts 299°
2026-04-25 08:24 45.33888 18.50087 24083 ft 252 kts 299°
2026-04-25 08:24 45.34696 18.47868 24082 ft 253 kts 299°
2026-04-25 08:24 45.35504 18.45648 24081 ft 253 kts 299°
2026-04-25 08:24 45.36314 18.43421 24081 ft 253 kts 299°
2026-04-25 08:25 45.37121 18.41198 24082 ft 253 kts 298°
2026-04-25 08:25 45.37929 18.38970 24081 ft 253 kts 298°
2026-04-25 08:25 45.38738 18.36739 24082 ft 253 kts 298°
2026-04-25 08:25 45.39535 18.34541 24082 ft 253 kts 298°
2026-04-25 08:26 45.40340 18.32315 24082 ft 253 kts 298°
2026-04-25 08:26 45.41148 18.30081 24082 ft 254 kts 298°
2026-04-25 08:26 45.41957 18.27844 24084 ft 254 kts 298°
2026-04-25 08:26 45.42765 18.25608 24082 ft 254 kts 298°
2026-04-25 08:27 45.43574 18.23367 24085 ft 254 kts 298°
2026-04-25 08:27 45.44383 18.21123 24081 ft 255 kts 298°
2026-04-25 08:27 45.45192 18.18878 24081 ft 254 kts 298°
2026-04-25 08:27 45.45998 18.16638 24081 ft 254 kts 298°
2026-04-25 08:28 45.46805 18.14392 24083 ft 254 kts 298°
2026-04-25 08:28 45.47612 18.12148 24080 ft 255 kts 298°
2026-04-25 08:28 45.48418 18.09903 24080 ft 254 kts 298°
2026-04-25 08:28 45.49223 18.07658 24081 ft 255 kts 298°
2026-04-25 08:29 45.50033 18.05401 24081 ft 255 kts 298°
2026-04-25 08:29 45.50828 18.03182 24083 ft 255 kts 298°
2026-04-25 08:29 45.51634 18.00928 24085 ft 255 kts 298°
2026-04-25 08:29 45.52443 17.98666 24084 ft 255 kts 298°
2026-04-25 08:30 45.53248 17.96412 24084 ft 255 kts 298°
2026-04-25 08:30 45.54042 17.94189 24082 ft 254 kts 298°
2026-04-25 08:30 45.54844 17.91940 24085 ft 254 kts 298°
2026-04-25 08:30 45.55647 17.89685 24087 ft 254 kts 298°
2026-04-25 08:31 45.56448 17.87436 24089 ft 254 kts 298°
2026-04-25 08:31 45.57248 17.85188 24087 ft 254 kts 298°
2026-04-25 08:31 45.58047 17.82940 24084 ft 254 kts 298°
2026-04-25 08:31 45.58845 17.80694 24084 ft 254 kts 298°
2026-04-25 08:32 45.59644 17.78442 24083 ft 254 kts 298°
2026-04-25 08:32 45.60439 17.76200 24086 ft 254 kts 298°
2026-04-25 08:32 45.61236 17.73949 24085 ft 254 kts 298°
2026-04-25 08:32 45.62034 17.71697 24084 ft 254 kts 298°
2026-04-25 08:33 45.62829 17.69447 24085 ft 254 kts 298°
2026-04-25 08:33 45.63624 17.67198 24084 ft 253 kts 298°
2026-04-25 08:33 45.64407 17.64979 24083 ft 253 kts 298°
2026-04-25 08:33 45.65200 17.62731 24083 ft 253 kts 298°
2026-04-25 08:34 45.65993 17.60483 24084 ft 253 kts 298°
2026-04-25 08:34 45.66786 17.58232 24084 ft 253 kts 298°
2026-04-25 08:34 45.67577 17.55982 24086 ft 253 kts 298°
2026-04-25 08:34 45.68369 17.53731 24085 ft 253 kts 298°
2026-04-25 08:35 45.69160 17.51479 24086 ft 253 kts 298°
2026-04-25 08:35 45.69951 17.49227 24084 ft 253 kts 298°
2026-04-25 08:35 45.70732 17.46997 24083 ft 253 kts 298°
2026-04-25 08:35 45.71524 17.44738 24082 ft 253 kts 298°
2026-04-25 08:36 45.72312 17.42487 24086 ft 253 kts 298°
2026-04-25 08:36 45.73100 17.40234 24086 ft 253 kts 298°
2026-04-25 08:36 45.73890 17.37976 24088 ft 253 kts 298°
2026-04-25 08:36 45.74677 17.35720 24087 ft 253 kts 297°
2026-04-25 08:37 45.75464 17.33467 24086 ft 253 kts 297°
2026-04-25 08:37 45.76250 17.31212 24086 ft 253 kts 297°
2026-04-25 08:37 45.77039 17.28948 24084 ft 253 kts 297°
2026-04-25 08:37 45.77824 17.26692 24091 ft 253 kts 298°
2026-04-25 08:38 45.78609 17.24435 24086 ft 253 kts 297°
2026-04-25 08:38 45.79395 17.22173 24090 ft 254 kts 297°
2026-04-25 08:38 45.80180 17.19912 24089 ft 254 kts 297°
2026-04-25 08:38 45.80966 17.17647 24089 ft 254 kts 297°
2026-04-25 08:39 45.81752 17.15378 24089 ft 254 kts 297°
2026-04-25 08:39 45.82527 17.13138 24087 ft 254 kts 297°
2026-04-25 08:39 45.83311 17.10873 24091 ft 254 kts 297°
2026-04-25 08:39 45.84096 17.08602 24086 ft 254 kts 297°
2026-04-25 08:40 45.84879 17.06337 24087 ft 254 kts 297°
2026-04-25 08:40 45.85662 17.04068 24088 ft 253 kts 297°
2026-04-25 08:40 45.86446 17.01793 24089 ft 254 kts 297°
2026-04-25 08:40 45.87228 16.99524 24088 ft 254 kts 297°
2026-04-25 08:41 45.88012 16.97246 24088 ft 254 kts 297°
2026-04-25 08:41 45.88794 16.94973 24088 ft 254 kts 297°
2026-04-25 08:41 45.89566 16.92726 24090 ft 254 kts 297°
2026-04-25 08:41 45.90347 16.90450 24090 ft 254 kts 297°
2026-04-25 08:42 45.91130 16.88168 24091 ft 254 kts 297°
2026-04-25 08:42 45.91915 16.85878 24093 ft 255 kts 297°
2026-04-25 08:42 45.92698 16.83593 24088 ft 255 kts 297°
2026-04-25 08:42 45.93480 16.81305 24090 ft 255 kts 297°
2026-04-25 08:43 45.94262 16.79019 24091 ft 255 kts 297°
2026-04-25 08:43 45.95043 16.76732 24090 ft 255 kts 296°
2026-04-25 08:43 45.95826 16.74440 24090 ft 255 kts 297°
2026-04-25 08:43 45.96597 16.72177 24089 ft 255 kts 297°
2026-04-25 08:44 45.97387 16.69860 24085 ft 255 kts 296°
2026-04-25 08:44 45.98155 16.67601 24088 ft 255 kts 297°
2026-04-25 08:44 45.98934 16.65311 24091 ft 255 kts 296°
2026-04-25 08:44 45.99712 16.63022 24089 ft 255 kts 296°
2026-04-25 08:45 46.00491 16.60726 24088 ft 255 kts 297°
2026-04-25 08:45 46.01267 16.58439 24088 ft 254 kts 296°
2026-04-25 08:45 46.02043 16.56149 24083 ft 255 kts 296°
2026-04-25 08:45 46.02821 16.53852 24087 ft 255 kts 297°
2026-04-25 08:46 46.03600 16.51550 24083 ft 255 kts 297°
2026-04-25 08:46 46.04367 16.49283 24084 ft 255 kts 296°
2026-04-25 08:46 46.05144 16.46981 24086 ft 255 kts 296°
2026-04-25 08:46 46.05919 16.44680 24085 ft 255 kts 296°
2026-04-25 08:47 46.06696 16.42373 24077 ft 255 kts 296°
2026-04-25 08:47 46.07472 16.40073 24082 ft 255 kts 296°
2026-04-25 08:47 46.08247 16.37773 24080 ft 255 kts 296°
2026-04-25 08:47 46.09021 16.35471 24084 ft 255 kts 296°
2026-04-25 08:48 46.09795 16.33166 24081 ft 255 kts 296°
2026-04-25 08:48 46.10568 16.30864 24078 ft 255 kts 296°
2026-04-25 08:48 46.11339 16.28566 24081 ft 255 kts 296°
2026-04-25 08:48 46.12101 16.26293 24088 ft 255 kts 296°
2026-04-25 08:49 46.12871 16.23991 24084 ft 255 kts 296°
2026-04-25 08:49 46.13640 16.21692 24080 ft 255 kts 296°
2026-04-25 08:49 46.14409 16.19388 24081 ft 255 kts 296°
2026-04-25 08:49 46.15181 16.17080 24086 ft 254 kts 296°
2026-04-25 08:50 46.15948 16.14781 24080 ft 254 kts 296°
2026-04-25 08:50 46.16714 16.12480 24081 ft 254 kts 296°
2026-04-25 08:50 46.17478 16.10187 24085 ft 253 kts 296°
2026-04-25 08:50 46.18242 16.07891 24084 ft 254 kts 296°
2026-04-25 08:51 46.18996 16.05624 24079 ft 254 kts 296°
2026-04-25 08:51 46.19769 16.03296 24080 ft 254 kts 296°
2026-04-25 08:51 46.20524 16.01022 24077 ft 254 kts 296°
2026-04-25 08:51 46.21286 15.98723 24076 ft 254 kts 296°
2026-04-25 08:52 46.22048 15.96424 24082 ft 254 kts 296°
2026-04-25 08:52 46.22809 15.94122 24076 ft 254 kts 295°
2026-04-25 08:52 46.23571 15.91819 24076 ft 254 kts 295°
2026-04-25 08:52 46.24330 15.89520 24079 ft 254 kts 295°
2026-04-25 08:53 46.25095 15.87205 24076 ft 254 kts 295°
2026-04-25 08:53 46.25855 15.84902 24073 ft 254 kts 295°
2026-04-25 08:53 46.26619 15.82596 24073 ft 253 kts 296°
2026-04-25 08:53 46.27476 15.80369 24077 ft 253 kts 298°
2026-04-25 08:54 46.28333 15.78143 24073 ft 254 kts 298°
2026-04-25 08:54 46.29190 15.75915 24072 ft 254 kts 298°
2026-04-25 08:54 46.30042 15.73705 24073 ft 254 kts 298°
2026-04-25 08:54 46.30902 15.71473 24072 ft 254 kts 298°
2026-04-25 08:55 46.31764 15.69233 24073 ft 254 kts 298°
2026-04-25 08:55 46.32624 15.66996 24074 ft 255 kts 298°
2026-04-25 08:55 46.33485 15.64754 24073 ft 254 kts 298°
2026-04-25 08:55 46.34345 15.62511 24071 ft 254 kts 298°
2026-04-25 08:56 46.35206 15.60266 24070 ft 255 kts 298°
2026-04-25 08:56 46.36066 15.58024 24070 ft 255 kts 298°
2026-04-25 08:56 46.36925 15.55781 24072 ft 254 kts 298°
2026-04-25 08:56 46.37772 15.53566 24070 ft 254 kts 298°
2026-04-25 08:57 46.38629 15.51322 24068 ft 255 kts 298°
2026-04-25 08:57 46.39486 15.49080 24071 ft 255 kts 298°
2026-04-25 08:57 46.40346 15.46827 24071 ft 255 kts 298°
2026-04-25 08:57 46.41204 15.44575 24073 ft 256 kts 298°
2026-04-25 08:58 46.42061 15.42326 24068 ft 255 kts 298°
2026-04-25 08:58 46.42920 15.40068 24069 ft 255 kts 298°
2026-04-25 08:58 46.43775 15.37819 24071 ft 254 kts 298°
2026-04-25 08:58 46.44341 15.36330 24070 ft 254 kts 298°
2026-04-25 08:59 46.45195 15.34082 24070 ft 254 kts 298°
2026-04-25 08:59 46.46051 15.31826 24072 ft 256 kts 298°
2026-04-25 08:59 46.46909 15.29562 24069 ft 256 kts 298°
2026-04-25 08:59 46.48044 15.26566 24065 ft 256 kts 298°
2026-04-25 09:00 46.48622 15.25039 24066 ft 256 kts 298°
2026-04-25 09:00 46.49468 15.22801 24064 ft 255 kts 298°
2026-04-25 09:00 46.50320 15.20547 24066 ft 255 kts 298°
2026-04-25 09:00 46.51182 15.18262 24068 ft 255 kts 298°
2026-04-25 09:01 46.52031 15.16012 24066 ft 256 kts 298°
2026-04-25 09:01 46.52884 15.13751 24064 ft 256 kts 298°
2026-04-25 09:01 46.53734 15.11493 24069 ft 256 kts 298°
2026-04-25 09:01 46.54593 15.09208 24067 ft 256 kts 297°
2026-04-25 09:02 46.55441 15.06952 24065 ft 256 kts 297°
2026-04-25 09:02 46.56293 15.04685 24068 ft 256 kts 297°
2026-04-25 09:02 46.57151 15.02398 24071 ft 256 kts 297°
2026-04-25 09:02 46.57994 15.00151 24069 ft 257 kts 297°
2026-04-25 09:03 46.58847 14.97874 24066 ft 256 kts 297°
2026-04-25 09:03 46.59700 14.95597 24066 ft 256 kts 297°
2026-04-25 09:03 46.60553 14.93316 24073 ft 256 kts 297°
2026-04-25 09:03 46.61361 14.91008 24073 ft 255 kts 294°
2026-04-25 09:04 46.62138 14.88675 24072 ft 256 kts 295°
2026-04-25 09:04 46.62933 14.86352 24078 ft 255 kts 295°
2026-04-25 09:04 46.63731 14.83995 24077 ft 251 kts 295°
2026-04-25 09:04 46.64469 14.81791 24079 ft 248 kts 295°
2026-04-25 09:05 46.65220 14.79549 24079 ft 244 kts 295°
2026-04-25 09:05 46.65960 14.77341 24083 ft 242 kts 295°
2026-04-25 09:05 46.66694 14.75153 24085 ft 239 kts 295°
2026-04-25 09:05 46.67418 14.72989 24085 ft 236 kts 295°
2026-04-25 09:06 46.68138 14.70835 24090 ft 236 kts 295°
2026-04-25 09:06 46.68844 14.68721 24089 ft 235 kts 294°
2026-04-25 09:06 46.69557 14.66584 24091 ft 234 kts 295°
2026-04-25 09:06 46.70268 14.64455 24091 ft 233 kts 295°
2026-04-25 09:07 46.70974 14.62337 24090 ft 232 kts 294°
2026-04-25 09:07 46.71680 14.60215 24096 ft 233 kts 294°
2026-04-25 09:07 46.72387 14.58091 24089 ft 233 kts 294°
2026-04-25 09:07 46.73094 14.55965 24095 ft 232 kts 294°
2026-04-25 09:08 46.73797 14.53849 24096 ft 232 kts 294°
2026-04-25 09:08 46.74500 14.51732 24096 ft 232 kts 294°
2026-04-25 09:08 46.75203 14.49614 24095 ft 232 kts 294°
2026-04-25 09:08 46.75905 14.47494 24095 ft 232 kts 294°
2026-04-25 09:09 46.76606 14.45378 24098 ft 231 kts 294°
2026-04-25 09:09 46.77304 14.43267 24094 ft 231 kts 294°
2026-04-25 09:09 46.77995 14.41178 24099 ft 231 kts 294°
2026-04-25 09:09 46.78695 14.39060 24097 ft 231 kts 294°
2026-04-25 09:10 46.79393 14.36945 24098 ft 231 kts 294°
2026-04-25 09:10 46.80088 14.34836 24096 ft 230 kts 294°
2026-04-25 09:10 46.80784 14.32725 24095 ft 229 kts 294°
2026-04-25 09:10 46.81466 14.30652 24095 ft 229 kts 294°
2026-04-25 09:11 46.82848 14.26448 24099 ft 230 kts 294°
2026-04-25 09:11 46.83539 14.24346 24099 ft 230 kts 294°
2026-04-25 09:11 46.84232 14.22236 24100 ft 230 kts 294°
2026-04-25 09:12 46.84923 14.20128 24101 ft 230 kts 294°
2026-04-25 09:12 46.85614 14.18018 24101 ft 230 kts 294°
2026-04-25 09:12 46.86306 14.15904 24099 ft 230 kts 294°
2026-04-25 09:12 46.86998 14.13791 24101 ft 230 kts 294°
2026-04-25 09:13 46.87689 14.11677 24102 ft 231 kts 294°
2026-04-25 09:13 46.88380 14.09560 24097 ft 231 kts 294°
2026-04-25 09:13 46.89072 14.07440 24099 ft 231 kts 294°
2026-04-25 09:13 46.89762 14.05326 24097 ft 230 kts 294°
2026-04-25 09:14 46.90440 14.03243 24097 ft 230 kts 294°
2026-04-25 09:14 46.91127 14.01131 24101 ft 230 kts 294°
2026-04-25 09:14 46.91816 13.99014 24101 ft 231 kts 294°
2026-04-25 09:14 46.92507 13.96888 24102 ft 231 kts 294°
2026-04-25 09:15 46.93195 13.94770 24098 ft 230 kts 294°
2026-04-25 09:15 46.93881 13.92655 24100 ft 231 kts 293°
2026-04-25 09:15 46.94567 13.90536 24100 ft 231 kts 293°
2026-04-25 09:15 46.95258 13.88406 24099 ft 231 kts 293°
2026-04-25 09:16 46.95945 13.86283 24097 ft 230 kts 293°
2026-04-25 09:16 46.96627 13.84173 24096 ft 229 kts 293°
2026-04-25 09:16 46.97308 13.82065 24101 ft 229 kts 293°
2026-04-25 09:16 46.97988 13.79960 24100 ft 229 kts 293°
2026-04-25 09:17 46.99354 13.75722 24100 ft 230 kts 293°
2026-04-25 09:17 47.00040 13.73593 24104 ft 230 kts 293°
2026-04-25 09:17 47.00709 13.71513 24103 ft 230 kts 293°
2026-04-25 09:18 47.01393 13.69387 24101 ft 231 kts 293°
2026-04-25 09:18 47.02078 13.67253 24101 ft 231 kts 293°
2026-04-25 09:18 47.02761 13.65128 24098 ft 229 kts 293°
2026-04-25 09:18 47.03436 13.63022 24103 ft 228 kts 293°
2026-04-25 09:19 47.04109 13.60922 24102 ft 227 kts 293°
2026-04-25 09:19 47.04777 13.58834 24099 ft 226 kts 293°
2026-04-25 09:19 47.05447 13.56740 24105 ft 227 kts 293°
2026-04-25 09:19 47.06111 13.54665 24101 ft 227 kts 293°
2026-04-25 09:20 47.06779 13.52572 24105 ft 227 kts 292°
2026-04-25 09:20 47.07448 13.50477 24106 ft 227 kts 292°
2026-04-25 09:20 47.08113 13.48390 24101 ft 225 kts 292°
2026-04-25 09:20 47.08778 13.46304 24104 ft 225 kts 292°
2026-04-25 09:21 47.09441 13.44221 24107 ft 224 kts 292°
2026-04-25 09:21 47.10101 13.42144 24103 ft 225 kts 292°
2026-04-25 09:21 47.10760 13.40072 24104 ft 224 kts 292°
2026-04-25 09:21 47.11420 13.37991 24100 ft 225 kts 292°
2026-04-25 09:22 47.12080 13.35911 24102 ft 225 kts 292°
2026-04-25 09:22 47.12742 13.33825 24103 ft 225 kts 292°
2026-04-25 09:22 47.13405 13.31733 24108 ft 226 kts 292°
2026-04-25 09:22 47.14068 13.29637 24108 ft 227 kts 292°
2026-04-25 09:23 47.14733 13.27534 24103 ft 226 kts 292°
2026-04-25 09:23 47.15392 13.25449 24108 ft 225 kts 292°
2026-04-25 09:23 47.16050 13.23367 24105 ft 224 kts 292°
2026-04-25 09:23 47.16704 13.21292 24104 ft 224 kts 292°
2026-04-25 09:24 47.17359 13.19215 24104 ft 224 kts 292°
2026-04-25 09:24 47.18017 13.17124 24105 ft 227 kts 292°
2026-04-25 09:24 47.18672 13.15040 24109 ft 228 kts 292°
2026-04-25 09:24 47.19339 13.12922 24108 ft 228 kts 292°
2026-04-25 09:25 47.20003 13.10809 24108 ft 227 kts 292°
2026-04-25 09:25 47.20664 13.08703 24106 ft 227 kts 292°
2026-04-25 09:25 47.21326 13.06593 24109 ft 227 kts 292°
2026-04-25 09:25 47.21989 13.04477 24107 ft 228 kts 292°
2026-04-25 09:26 47.22654 13.02353 24105 ft 228 kts 292°
2026-04-25 09:26 47.23316 13.00236 24112 ft 228 kts 292°
2026-04-25 09:26 47.23980 12.98114 24110 ft 228 kts 292°
2026-04-25 09:26 47.24642 12.95993 24110 ft 228 kts 292°
2026-04-25 09:27 47.25306 12.93868 24112 ft 229 kts 292°
2026-04-25 09:27 47.25960 12.91769 24108 ft 228 kts 292°
2026-04-25 09:27 47.26618 12.89658 24113 ft 227 kts 292°
2026-04-25 09:27 47.27275 12.87548 24111 ft 226 kts 292°
2026-04-25 09:28 47.27930 12.85439 24112 ft 226 kts 291°
2026-04-25 09:28 47.28582 12.83337 24113 ft 226 kts 291°
2026-04-25 09:28 47.29236 12.81230 24117 ft 226 kts 291°
2026-04-25 09:28 47.29891 12.79121 24116 ft 226 kts 291°
2026-04-25 09:29 47.30545 12.77013 24116 ft 226 kts 291°
2026-04-25 09:29 47.31198 12.74909 24113 ft 225 kts 291°
2026-04-25 09:29 47.31850 12.72803 24116 ft 225 kts 291°
2026-04-25 09:29 47.32500 12.70699 24123 ft 226 kts 291°
2026-04-25 09:30 47.33155 12.68576 24119 ft 228 kts 291°
2026-04-25 09:30 47.33811 12.66452 24120 ft 228 kts 291°
2026-04-25 09:30 47.34469 12.64323 24120 ft 227 kts 291°
2026-04-25 09:30 47.35121 12.62204 24117 ft 227 kts 291°
2026-04-25 09:31 47.35773 12.60086 24121 ft 227 kts 291°
2026-04-25 09:31 47.36206 12.58679 24123 ft 227 kts 291°
2026-04-25 09:31 47.37067 12.55882 24119 ft 225 kts 291°
2026-04-25 09:31 47.37713 12.53775 24121 ft 226 kts 291°
2026-04-25 09:32 47.38361 12.51665 24123 ft 226 kts 291°
2026-04-25 09:32 47.39008 12.49555 24125 ft 226 kts 291°
2026-04-25 09:32 47.39656 12.47439 24123 ft 225 kts 291°
2026-04-25 09:32 47.40300 12.45336 24124 ft 225 kts 291°
2026-04-25 09:33 47.40943 12.43227 24130 ft 226 kts 291°
2026-04-25 09:33 47.41587 12.41117 24122 ft 226 kts 291°
2026-04-25 09:33 47.42233 12.39006 24131 ft 224 kts 291°
2026-04-25 09:33 47.42876 12.36903 24128 ft 224 kts 291°
2026-04-25 09:34 47.43515 12.34805 24131 ft 224 kts 291°
2026-04-25 09:34 47.44157 12.32699 24133 ft 225 kts 291°
2026-04-25 09:34 47.44798 12.30589 24133 ft 226 kts 291°
2026-04-25 09:34 47.45443 12.28468 24132 ft 226 kts 291°
2026-04-25 09:35 47.46082 12.26367 24132 ft 227 kts 291°
2026-04-25 09:35 47.46728 12.24237 24134 ft 227 kts 291°
2026-04-25 09:35 47.47376 12.22101 24134 ft 228 kts 291°
2026-04-25 09:35 47.48022 12.19969 24133 ft 227 kts 291°
2026-04-25 09:36 47.48668 12.17835 24132 ft 227 kts 291°
2026-04-25 09:36 47.49315 12.15696 24132 ft 228 kts 291°
2026-04-25 09:36 47.49959 12.13567 24132 ft 226 kts 290°
2026-04-25 09:36 47.50602 12.11436 24139 ft 226 kts 291°
2026-04-25 09:37 47.51238 12.09329 24134 ft 227 kts 291°
2026-04-25 09:37 47.51882 12.07193 24136 ft 227 kts 290°
2026-04-25 09:37 47.52525 12.05056 24136 ft 227 kts 291°
2026-04-25 09:37 47.53170 12.02913 24134 ft 228 kts 291°
2026-04-25 09:38 47.53784 12.00747 24136 ft 226 kts 283°
2026-04-25 09:38 47.54117 11.98492 24136 ft 224 kts 278°
2026-04-25 09:38 47.54428 11.96236 24140 ft 223 kts 279°
2026-04-25 09:38 47.54748 11.93982 24138 ft 225 kts 279°
2026-04-25 09:39 47.55070 11.91709 24132 ft 226 kts 279°
2026-04-25 09:39 47.55387 11.89458 24133 ft 226 kts 279°
2026-04-25 09:39 47.55706 11.87182 24137 ft 227 kts 279°
2026-04-25 09:40 47.56347 11.82602 24134 ft 227 kts 279°
2026-04-25 09:40 47.56667 11.80311 24132 ft 226 kts 279°
2026-04-25 09:40 47.56987 11.78020 24135 ft 226 kts 279°
2026-04-25 09:40 47.57304 11.75741 24131 ft 228 kts 279°
2026-04-25 09:41 47.57626 11.73412 24132 ft 233 kts 278°
2026-04-25 09:41 47.57956 11.71035 24132 ft 237 kts 279°
2026-04-25 09:41 47.58291 11.68622 24135 ft 241 kts 279°
2026-04-25 09:41 47.58625 11.66210 24136 ft 243 kts 278°
2026-04-25 09:42 47.58966 11.63747 24133 ft 246 kts 279°
2026-04-25 09:42 47.59309 11.61261 24135 ft 246 kts 279°
2026-04-25 09:42 47.59652 11.58769 24136 ft 247 kts 279°
2026-04-25 09:42 47.59995 11.56270 24139 ft 248 kts 278°
2026-04-25 09:43 47.60223 11.54610 24134 ft 248 kts 278°
2026-04-25 09:43 47.60567 11.52103 24132 ft 248 kts 278°
2026-04-25 09:43 47.60909 11.49601 24137 ft 248 kts 279°
2026-04-25 09:43 47.61252 11.47093 24134 ft 248 kts 278°
2026-04-25 09:44 47.61595 11.44570 24137 ft 251 kts 278°
2026-04-25 09:44 47.62054 11.41195 24136 ft 253 kts 278°
2026-04-25 09:44 47.62278 11.39468 24136 ft 253 kts 276°
2026-04-25 09:44 47.62679 11.36056 24131 ft 255 kts 278°
2026-04-25 09:45 47.62906 11.34312 23999 ft 256 kts 278°
2026-04-25 09:45 47.63235 11.31723 23637 ft 255 kts 277°
2026-04-25 09:45 47.63547 11.29145 23227 ft 253 kts 277°
2026-04-25 09:45 47.63855 11.26580 22740 ft 252 kts 278°
2026-04-25 09:46 47.64165 11.24024 22233 ft 252 kts 278°
2026-04-25 09:46 47.64472 11.21494 21749 ft 252 kts 278°
2026-04-25 09:46 47.64780 11.18939 21260 ft 252 kts 278°
2026-04-25 09:46 47.65073 11.16509 20809 ft 251 kts 278°
2026-04-25 09:47 47.65380 11.13953 20335 ft 250 kts 278°
2026-04-25 09:47 47.65684 11.11421 19876 ft 249 kts 278°
2026-04-25 09:47 47.65984 11.08904 19466 ft 247 kts 278°
2026-04-25 09:47 47.66282 11.06400 19063 ft 246 kts 278°
2026-04-25 09:48 47.66580 11.03905 18669 ft 245 kts 278°
2026-04-25 09:48 47.66875 11.01441 18255 ft 245 kts 279°
2026-04-25 09:48 47.67172 10.98951 17800 ft 244 kts 279°
2026-04-25 09:48 47.67466 10.96468 17356 ft 245 kts 279°
2026-04-25 09:49 47.67762 10.93962 16916 ft 248 kts 279°
2026-04-25 09:49 47.68060 10.91440 16480 ft 249 kts 279°
2026-04-25 09:49 47.68362 10.88907 16054 ft 248 kts 281°
2026-04-25 09:49 47.69104 10.86605 15617 ft 252 kts 308°
2026-04-25 09:50 47.70493 10.85015 15213 ft 255 kts 327°
2026-04-25 09:50 47.72039 10.83731 14801 ft 254 kts 327°
2026-04-25 09:50 47.73515 10.82297 14398 ft 252 kts 322°
2026-04-25 09:50 47.74897 10.80748 14000 ft 251 kts 321°
2026-04-25 09:51 47.76286 10.79189 13563 ft 250 kts 322°
2026-04-25 09:51 47.77691 10.77667 13120 ft 249 kts 322°
2026-04-25 09:51 47.79095 10.76156 12700 ft 248 kts 322°
2026-04-25 09:51 47.80481 10.74651 12327 ft 246 kts 322°
2026-04-25 09:52 47.81856 10.73150 11948 ft 244 kts 322°
2026-04-25 09:52 47.83235 10.71647 11524 ft 246 kts 322°
2026-04-25 09:52 47.84617 10.70143 11108 ft 244 kts 322°
2026-04-25 09:52 47.85984 10.68654 10694 ft 243 kts 321°
2026-04-25 09:53 47.87295 10.67222 10304 ft 242 kts 321°
2026-04-25 09:53 47.88642 10.65751 9890 ft 241 kts 321°
2026-04-25 09:53 47.89996 10.64271 9443 ft 241 kts 321°
2026-04-25 09:53 47.91352 10.62788 9002 ft 243 kts 321°
2026-04-25 09:54 47.92713 10.61298 8565 ft 242 kts 321°
2026-04-25 09:54 47.94065 10.59818 8132 ft 240 kts 321°
2026-04-25 09:54 47.95404 10.58352 7706 ft 238 kts 321°
2026-04-25 09:54 47.96735 10.56893 7288 ft 235 kts 321°
2026-04-25 09:55 47.98008 10.55498 6886 ft 226 kts 321°
2026-04-25 09:55 47.99251 10.54144 6456 ft 217 kts 323°
2026-04-25 09:55 48.00545 10.52991 5905 ft 213 kts 327°
2026-04-25 09:55 48.01805 10.51896 5376 ft 207 kts 327°
2026-04-25 09:56 48.03047 10.50812 5010 ft 210 kts 327°
2026-04-25 09:56 48.04307 10.49707 5005 ft 203 kts 327°
2026-04-25 09:56 48.05402 10.48616 5009 ft 177 kts 316°
2026-04-25 09:56 48.06160 10.47206 5016 ft 175 kts 296°
2026-04-25 09:57 48.06539 10.45460 5007 ft 178 kts 276°
2026-04-25 09:57 48.06475 10.43629 5009 ft 179 kts 255°
2026-04-25 09:57 48.05959 10.41929 5030 ft 181 kts 243°
2026-04-25 09:57 48.05334 10.40271 4997 ft 180 kts 242°
2026-04-25 09:58 48.04681 10.38607 4540 ft 195 kts 239°
2026-04-25 09:58 48.03936 10.36842 4151 ft 205 kts 239°
2026-04-25 09:58 48.03216 10.35090 3866 ft 195 kts 240°
2026-04-25 09:58 48.02568 10.33404 3647 ft 180 kts 241°
2026-04-25 09:59 48.01985 10.31831 3225 ft 163 kts 238°
2026-04-25 09:59 48.01438 10.30456 2907 ft 144 kts 240°
2026-04-25 09:59 48.00953 10.29253 2658 ft 128 kts 240°
2026-04-25 09:59 48.00531 10.28173 2491 ft 109 kts 242°
2026-04-25 10:00 48.00173 10.27228 2319 ft 98 kts 238°
2026-04-25 10:00 47.99827 10.26360 2200 ft 98 kts 239°
2026-04-25 10:00 47.99496 10.25501 2106 ft 91 kts 239°
2026-04-25 10:00 47.99177 10.24708 2063 ft 81 kts 241°
2026-04-25 10:01 47.98990 10.24230 2066 ft 37 kts 240°
2026-04-25 10:01 47.98867 10.23922 2073 ft 21 kts 241°
2026-04-25 10:01 47.98846 10.23760 2075 ft 15 kts 330°
2026-04-25 10:01 47.98900 10.23706 2075 ft 0 kts 306°
2026-04-25 10:04 47.98910 10.23682 2075 ft 8 kts 290°
2026-04-25 10:04 47.98896 10.23570 2075 ft 14 kts 252°
2026-04-25 10:04 47.98858 10.23412 2076 ft 16 kts 251°
2026-04-25 10:04 47.98815 10.23230 2076 ft 21 kts 252°
2026-04-25 10:05 47.98769 10.23036 2076 ft 11 kts 249°
2026-04-25 10:05 47.98730 10.22934 2076 ft 12 kts 220°
2026-04-25 10:05 47.98706 10.22845 2076 ft 8 kts 261°
2026-04-25 10:05 47.98722 10.22778 2076 ft 2 kts 348°
2026-04-25 10:06 47.98732 10.22775 2076 ft 5 kts 349°
2026-04-25 10:06 47.98754 10.22795 2076 ft 0 kts 92°
2026-04-25 10:06 47.98754 10.22799 2076 ft 0 kts 96°